Weather History for Wright-Patt AFB, OH

Change the Weather History Date:

Saturday, March 29, 2014

  Actual Average Record
Temperature  
Mean Temperature 36 °F -  
Max Temperature 39 °F 55 °F 78 °F (1998)
Min Temperature 32 °F 34 °F 23 °F (2008)
Degree Days  
Heating Degree Days 30    
Moisture  
Dew Point 33 °F    
Average Humidity 89    
Maximum Humidity 100    
Minimum Humidity 78    
Precipitation  
Precipitation 1.18 in - - ()
Sea Level Pressure  
Sea Level Pressure 30.00 in    
Wind  
Wind Speed 12 mph (North)    
Max Wind Speed 21 mph    
Max Gust Speed 28 mph    
Visibility 5 miles    
Events Rain , Snow    
Averages and records for this station are not official NWS values.
T = Trace of Precipitation, MM = Missing Value Source: NWS Daily Summary

Daily Weather History Graph

Daily Weather History Graph

Search for Another Location

Airport:

Trip Planner

Search our weather history database for the weather conditions in past years. The results will help you decide how hot, cold, wet, or windy it might be!

Date:

Astronomy

Mar. 29, 2014 Rise Set
Actual Time 7:25 AM EDT 7:57 PM EDT
Civil Twilight 6:57 AM EDT 8:24 PM EDT
Nautical Twilight 6:26 AM EDT 8:56 PM EDT
Astronomical Twilight 5:53 AM EDT 9:29 PM EDT
Moon 6:33 AM EDT (3/29) 7:01 PM EDT (3/29)
Length of Visible Light 13h 26m
Length of Day
12h 32m
Waning Crescent, 2% of the Moon is Illuminated
Mar 29
Waning Crescent
Mar 30
New
Apr 7
First Quarter
Apr 15
Full
Apr 22
Last Quarter

Hourly Weather History & Observations

Time (EDT) Temp. Windchill Dew Point Humidity Pressure Visibility Wind Dir Wind Speed Gust Speed Precip Events Conditions
12:58 AM 36.9 °F 30.7 °F 33.3 °F 87% 30.12 in 10.0 mi NE 8.1 mph - N/A   Clear
1:58 AM 38.3 °F 33.2 °F 34.0 °F 84% 30.12 in 10.0 mi ENE 6.9 mph - N/A   Clear
2:58 AM 37.4 °F 32.8 °F 34.0 °F 87% 30.09 in 10.0 mi NNE 5.8 mph - N/A   Clear
3:58 AM 37.8 °F 32.5 °F 34.3 °F 87% 30.07 in 10.0 mi NNE 6.9 mph - N/A   Scattered Clouds
4:58 AM 38.1 °F 31.2 °F 34.3 °F 86% 30.04 in 10.0 mi NE 10.4 mph - N/A   Clear
5:58 AM 38.5 °F 32.1 °F 34.2 °F 84% 30.02 in 10.0 mi NE 9.2 mph - N/A   Overcast
6:58 AM 39.0 °F 31.0 °F 34.3 °F 83% 30.00 in 10.0 mi NE 13.8 mph - N/A   Overcast
7:58 AM 39.4 °F 31.4 °F 34.7 °F 83% 29.98 in 7.0 mi NE 13.8 mph - N/A   Overcast
8:25 AM 39.2 °F 31.6 °F 35.6 °F 87% 29.96 in 10.0 mi North 12.7 mph - N/A   Overcast
8:33 AM 39.2 °F 33.0 °F 35.6 °F 87% 29.98 in 4.0 mi North 9.2 mph - N/A Rain Rain
8:48 AM 39.2 °F 33.0 °F 35.6 °F 87% 29.99 in 3.0 mi NNW 9.2 mph - N/A Rain Heavy Rain
8:58 AM 39.2 °F 32.5 °F 36.1 °F 89% 30.02 in 1.8 mi NNW 10.4 mph - 0.06 in Rain Heavy Rain
9:16 AM 39.2 °F 31.6 °F 37.4 °F 93% 30.02 in 1.5 mi NNW 12.7 mph - N/A Rain Rain
9:46 AM 39.2 °F 33.0 °F 37.4 °F 93% 30.04 in 2.0 mi North 9.2 mph - N/A Rain Rain
9:58 AM 38.7 °F 31.4 °F 36.9 °F 93% 30.04 in 1.0 mi North 11.5 mph - 0.32 in Rain Heavy Rain
10:28 AM 39.2 °F 30.8 °F 37.4 °F 93% 29.99 in 2.0 mi North 15.0 mph - N/A Rain Rain
10:38 AM 39.2 °F 30.2 °F 37.4 °F 93% 29.98 in 3.0 mi North 17.3 mph 21.9 mph N/A Rain Rain
10:55 AM 39.2 °F 29.8 °F 35.6 °F 87% 29.98 in 3.0 mi North 18.4 mph - N/A Rain Rain
10:58 AM 38.3 °F 28.7 °F 36.5 °F 93% 29.99 in 3.0 mi North 18.4 mph - 0.31 in Rain Rain
11:18 AM 37.4 °F 29.3 °F 35.6 °F 93% 30.00 in 2.5 mi North 12.7 mph 20.7 mph N/A Rain Rain
11:38 AM 37.4 °F 29.3 °F 35.6 °F 93% 30.00 in 4.0 mi North 12.7 mph - N/A Rain Light Rain
11:58 AM 37.9 °F 30.5 °F 35.4 °F 91% 30.01 in 5.0 mi North 11.5 mph 19.6 mph 0.17 in Rain Light Rain
12:09 PM 37.4 °F 27.5 °F 35.6 °F 93% 30.00 in 3.0 mi North 18.4 mph 24.2 mph N/A Rain Rain
12:23 PM 37.4 °F 26.9 °F 33.8 °F 87% 29.97 in 2.5 mi NNE 20.7 mph - N/A Rain Heavy Rain
12:34 PM 37.4 °F 31.4 °F 33.8 °F 87% 29.97 in 3.0 mi North 8.1 mph 27.6 mph N/A Rain Rain
12:54 PM 37.4 °F 27.8 °F 33.8 °F 87% 29.98 in 4.0 mi North 17.3 mph 23.0 mph N/A Rain Light Rain
12:59 PM 37.0 °F 28.1 °F 34.7 °F 91% 29.98 in 4.0 mi North 15.0 mph 23.0 mph 0.00 in Rain Light Rain
1:46 PM 35.6 °F 27.1 °F 32.0 °F 87% 29.97 in 1.0 mi North 12.7 mph - N/A Snow Light Snow
1:58 PM 35.1 °F 27.4 °F 32.5 °F 91% 29.97 in 1.0 mi North 10.4 mph 23.0 mph 0.09 in Snow Light Snow
2:28 PM 33.8 °F 24.8 °F 32.0 °F 93% 29.96 in 1.0 mi North 12.7 mph 19.6 mph N/A Snow Light Snow
2:48 PM 33.8 °F 23.9 °F 32.0 °F 93% 29.96 in 1.0 mi NNE 15.0 mph - N/A Snow Light Snow
2:58 PM 33.8 °F 23.9 °F 31.8 °F 92% 29.95 in 2.5 mi NNE 15.0 mph - 0.07 in Snow Light Snow
3:13 PM 33.8 °F 23.9 °F 32.0 °F 93% 29.94 in 3.0 mi NNE 15.0 mph 24.2 mph N/A Rain , Snow Light Rain
3:18 PM 33.8 °F 24.3 °F 32.0 °F 93% 29.93 in 4.0 mi NNE 13.8 mph 24.2 mph N/A Rain Light Rain
3:45 PM 35.6 °F 27.5 °F 32.0 °F 87% 29.93 in 4.0 mi North 11.5 mph - N/A Rain Light Rain
3:58 PM 35.1 °F 26.4 °F 32.7 °F 91% 29.93 in 4.0 mi North 12.7 mph 19.6 mph 0.09 in Rain Light Rain
4:23 PM 35.6 °F 28.6 °F 32.0 °F 87% 29.94 in 5.0 mi North 9.2 mph 19.6 mph N/A Rain Light Rain
4:36 PM 35.6 °F 28.0 °F 32.0 °F 87% 29.95 in 3.0 mi NNW 10.4 mph - N/A Snow Light Snow
4:45 PM 35.6 °F 27.1 °F 32.0 °F 87% 29.95 in 2.0 mi NNW 12.7 mph - N/A Snow Light Snow
4:58 PM 34.9 °F 24.9 °F 32.5 °F 91% 29.97 in 0.8 mi NNW 16.1 mph - 0.04 in Snow Light Snow
5:19 PM 32.0 °F 22.1 °F 32.0 °F 100% 29.98 in 1.5 mi NNW 13.8 mph 21.9 mph N/A Snow Light Snow
5:29 PM 32.0 °F 21.6 °F 32.0 °F 100% 29.98 in 2.5 mi NNW 15.0 mph 23.0 mph N/A Snow Light Snow
5:38 PM 33.8 °F 25.3 °F 32.0 °F 93% 29.99 in 4.0 mi NNW 11.5 mph 21.9 mph N/A Snow Light Snow
5:58 PM 34.3 °F 23.9 °F 32.0 °F 91% 29.99 in 6.0 mi North 17.3 mph 21.9 mph 0.03 in Snow Light Snow
6:17 PM 35.6 °F 25.9 °F 32.0 °F 87% 30.00 in 7.0 mi NNW 16.1 mph 24.2 mph N/A   Overcast
6:58 PM 34.9 °F 24.9 °F 31.3 °F 87% 30.02 in 10.0 mi North 16.1 mph 25.3 mph 0.00 in   Overcast
7:08 PM 35.6 °F 26.6 °F 32.0 °F 87% 30.02 in 10.0 mi North 13.8 mph 24.2 mph N/A   Overcast
7:58 PM 34.9 °F 26.6 °F 30.6 °F 84% 30.06 in 10.0 mi NNW 11.5 mph 26.5 mph N/A   Overcast
8:18 PM 35.6 °F 25.5 °F 32.0 °F 87% 30.06 in 10.0 mi North 17.3 mph 27.6 mph N/A   Overcast
8:58 PM 34.7 °F 25.1 °F 31.5 °F 88% 30.08 in 10.0 mi North 15.0 mph - N/A   Overcast
9:58 PM 35.6 °F 26.2 °F 32.0 °F 87% 30.10 in 10.0 mi NNW 15.0 mph 23.0 mph N/A   Overcast
10:18 PM 35.6 °F 27.1 °F 30.2 °F 81% 30.07 in 10.0 mi NNW 12.7 mph 19.6 mph N/A   Overcast
10:58 PM 35.2 °F 26.6 °F 29.7 °F 80% 30.11 in 10.0 mi NNW 12.7 mph - N/A   Overcast
11:58 PM 35.1 °F 26.4 °F 28.8 °F 78% 30.12 in 10.0 mi NNW 12.7 mph - N/A   Overcast